Regional Weather Roundup
Issued by NWS Kansas City/Pleasant Hill, MO

Home | Current Version | Previous Version | Graphics & Text | Print | Product List | Glossary Off
Versions: 1 2 3 4 5 6 7 8 9 10 11 12 13 14 15 16 17 18 19 20 21 22 23 24 25 26 27 28 29 30 31 32 33 34 35 36 37 38 39 40 41 42 43 44 45 46 47 48 49 50

000
ASUS43 KEAX 190111
RWREAX

WEATHER ROUNDUP FOR EASTERN KANSAS AND NORTHWEST MISSOURI
NATIONAL WEATHER SERVICE KANSAS CITY/PLEASANT HILL MO
800 PM CDT SAT APR 18 2015

KSZ040-057-103>105-MOZ028-029-037-043-190200-
...KANSAS CITY METROPOLITAN AREA...

CITY           SKY/WX    TMP DP  RH WIND       PRES   REMARKS
K.C. INTL      MOCLDY    61  58  90 SE7       29.83F
K.C. DOWNTOWN  MOCLDY    64  57  78 SE6       29.83F
LEES SUMMIT    PTCLDY    62  58  86 SE6       29.84F
OLATHE - IXD   MOCLDY    62  58  86 SE7       29.84F
OLATHE - OJC   MOCLDY    61  58  90 SE8       29.83F
LAWRENCE       MOCLDY    61  58  90 SE5       29.83S

$$

MOZ001>008-011>017-020>025-030>033-038>040-044>046-053-054-190200-
...NORTHERN AND CENTRAL MISSOURI...

CITY           SKY/WX    TMP DP  RH WIND       PRES   REMARKS
ST. JOSEPH     CLOUDY    62  58  86 SE7       29.84S
MOSBY          CLOUDY    63  59  88 SE5       29.84F
WARRENSBURG    MOCLDY    61  57  88 E5        29.84F
WHITEMAN AFB   MOCLDY    62  59  90 S2        29.84F
CLINTON        PTCLDY    63  61  94 CALM      29.85F
SEDALIA        CLOUDY    62  59  90 CALM      29.86F
WARSAW         NOT AVBL
MARSHALL       CLOUDY    64  63  94 E5        29.86F
CHILLICOTHE      N/A     63  60  90 SE6       29.86S
MOBERLY        CLOUDY    64  57  77 E7        29.87F
KIRKSVILLE     CLOUDY    61  59  93 E7        29.87F

$$

MOZ041-047>049-056>058-063>065-088>090-097-190200-
...EASTERN AND SOUTHERN MISSOURI...

CITY           SKY/WX    TMP DP  RH WIND       PRES   REMARKS
ST. LOUIS INTL CLOUDY    74  56  53 E8        29.88R
SPIRIT OF STL  CLOUDY    72  57  59 E5        29.85S
COLUMBIA       CLOUDY    63  59  87 E5        29.87F
JEFFERSON CITY CLOUDY    66  60  81 E3        29.86F
MEXICO         CLOUDY   N/A N/A N/A CALM      29.89S
ROLLA          CLOUDY    62  58  86 N7        29.85F
LEBANON        MOCLDY    63  59  88 NE3       29.85F
OSAGE BEACH    CLOUDY    63  57  82 CALM      29.85F
SPRINGFIELD    CLEAR     64  57  78 E5        29.83F
BRANSON        MOCLDY    63  59  88 CALM      29.85F
NEVADA         CLEAR     61  57  88 E5        29.85F
JOPLIN         PTCLDY    65  58  78 E6        29.83S
WEST PLAINS    MOCLDY    69  55  60 SE9       29.86F

$$

IAZ060-094-KSZ022-034>040-054-083-096-NEZ052-066-093-190200-
...KANSAS...SOUTHEAST NEBRASKA AND IOWA...

CITY           SKY/WX    TMP DP  RH WIND       PRES   REMARKS
TOPEKA         PTCLDY    64  57  78 E7        29.83S
MANHATTAN      CLOUDY    62  51  67 W9        29.83R
EMPORIA        CLOUDY    64  58  80 E6        29.81R
CHANUTE        CLEAR     64  59  83 E10       29.80F
WICHITA        HAIL      54  50  86 N21G28    29.81R FOG
OMAHA          CLOUDY    61  57  87 SE7       29.83R
LINCOLN        CLOUDY    63  55  75 SE14      29.83R
FALLS CITY     CLOUDY    59  56  89 SE5       29.83S
LAMONI         CLOUDY    61  59  93 CALM      29.84F
DES MOINES     LGT RAIN  62  60  93 NE6       29.83F

$$




USA.gov is the U.S. government's official web portal to all federal, state and local government web resources and services.